This demonstration page uses our WeatherBlox Daily Observations layout. Learn more.

Left ArrowRight Arrow

Hourly Observations for September 9, 2016

Temp ( °F °C ) Dew Point ( °F °C ) Humidity (%) Winds ( mph kmh ) Pressure ( in mb ) Visibility ( mi km ) Precip ( " mm )
12:15 am 00:15 Clear 82 28 73 23 74 74 WSW 7 11 29.94 1014 10 16 N/A
12:35 am 00:35 Clear 81 27 75 24 84 84 W 5 7 29.91 1013 10 16 N/A
12:55 am 00:55 Clear 81 27 75 24 84 84 W 5 7 29.94 1014 10 16 N/A
1:15 am 01:15 Clear 81 27 73 23 79 79 WSW 3 6 29.94 1014 10 16 N/A
1:35 am 01:35 Clear 79 26 73 23 84 84 W 5 7 29.91 1013 10 16 N/A
1:55 am 01:55 Clear 81 27 72 22 74 74 N N/A 29.91 1013 10 16 N/A
2:15 am 02:15 Clear 82 28 72 22 70 70 SSW 5 7 29.91 1013 10 16 N/A
2:35 am 02:35 Clear 81 27 73 23 79 79 SSW 8 13 29.91 1013 10 16 N/A
2:55 am 02:55 Clear 79 26 73 23 84 84 SW 6 9 29.94 1014 10 16 N/A
3:15 am 03:15 Clear 79 26 73 23 84 84 SW 3 6 29.94 1014 10 16 N/A
3:35 am 03:35 Clear 79 26 72 22 79 79 SW 8 13 29.91 1013 10 16 N/A
3:55 am 03:55 Clear 79 26 72 22 79 79 SW 10 17 29.91 1013 10 16 N/A
4:15 am 04:15 Clear 79 26 72 22 79 79 SSW 13 20 29.94 1014 10 16 N/A
4:35 am 04:35 Clear 77 25 72 22 83 83 SW 7 11 29.94 1014 10 16 N/A
4:55 am 04:55 Clear 77 25 72 22 83 83 SSW 10 17 29.94 1014 10 16 N/A
5:15 am 05:15 Clear 77 25 72 22 83 83 N N/A 29.94 1014 10 16 N/A
5:35 am 05:35 Clear 73 23 72 22 94 94 SW 3 6 29.94 1014 10 16 N/A
5:55 am 05:55 Clear 75 24 72 22 89 89 SSW 12 19 29.94 1014 10 16 N/A
6:15 am 06:15 Clear 75 24 72 22 89 89 SSW 9 15 29.94 1014 10 16 N/A
6:35 am 06:35 Clear 75 24 72 22 89 89 S 5 7 29.94 1014 10 16 N/A
6:55 am 06:55 Sunny 73 23 72 22 94 94 N N/A 29.94 1014 10 16 N/A
7:15 am 07:15 Sunny 73 23 72 22 94 94 N N/A 29.97 1015 10 16 N/A
7:35 am 07:35 Sunny 73 23 72 22 94 94 N N/A 29.97 1015 10 16 N/A
7:55 am 07:55 Sunny 75 24 73 23 94 94 N N/A 29.97 1015 10 16 N/A
8:15 am 08:15 Sunny 79 26 72 22 79 79 N N/A 29.97 1015 10 16 N/A
8:35 am 08:35 Sunny 81 27 72 22 74 74 SW 5 7 29.97 1015 10 16 N/A
8:55 am 08:55 Sunny 81 27 72 22 74 74 WSW 5 7 29.97 1015 10 16 N/A
9:15 am 09:15 Sunny 82 28 72 22 70 70 W 5 7 29.97 1015 10 16 N/A
9:35 am 09:35 Sunny 82 28 72 22 70 70 WSW 3 6 30.00 1016 10 16 N/A
9:55 am 09:55 Sunny 86 30 72 22 62 62 W 6 9 30.00 1016 10 16 N/A
10:15 am 10:15 Sunny 88 31 70 21 55 55 WSW 5 7 29.94 1014 10 16 N/A
10:35 am 10:35 Sunny 90 32 70 21 52 52 WSW 6 9 29.94 1014 10 16 N/A
10:55 am 10:55 Sunny 91 33 70 21 49 49 N N/A 29.94 1014 10 16 N/A
11:15 am 11:15 Sunny 91 33 68 20 46 46 W 7 11 29.94 1014 10 16 N/A
11:35 am 11:35 Sunny 91 33 70 21 49 49 W 8 13 29.94 1014 10 16 N/A
11:55 am 11:55 Sunny 91 33 72 22 52 52 WNW 10 17 29.94 1014 10 16 N/A
12:15 pm 12:15 Sunny 90 32 72 22 55 55 W 5 7 29.94 1014 10 16 N/A
12:35 pm 12:35 Sunny 90 32 72 22 55 55 W 8 13 29.94 1014 10 16 N/A
12:55 pm 12:55 Sunny 91 33 70 21 49 49 WNW 8 13 29.94 1014 10 16 N/A
1:15 pm 13:15 Sunny 91 33 70 21 49 49 W 3 6 29.94 1014 10 16 N/A
1:35 pm 13:35 Sunny 93 34 70 21 47 47 NW 6 9 29.94 1014 10 16 N/A
1:55 pm 13:55 Sunny 95 35 70 21 44 44 N N/A 29.94 1014 10 16 N/A
2:15 pm 14:15 Mostly Cloudy 93 34 70 21 47 47 W 6 9 29.94 1014 10 16 N/A
2:35 pm 14:35 Mostly Cloudy 95 35 70 21 44 44 WSW 6 9 29.91 1013 10 16 N/A
2:55 pm 14:55 Partly Cloudy 95 35 70 21 44 44 S 3 6 29.91 1013 10 16 N/A
3:15 pm 15:15 Sunny 97 36 70 21 42 42 SW 8 13 29.91 1013 10 16 N/A
3:35 pm 15:35 Sunny 97 36 70 21 42 42 SSW 7 11 29.91 1013 10 16 N/A
3:55 pm 15:55 Partly Cloudy 95 35 72 22 47 47 SSW 6 9 29.91 1013 10 16 N/A
4:15 pm 16:15 Partly Cloudy 97 36 70 21 42 42 WSW 7 11 29.91 1013 10 16 N/A
4:35 pm 16:35 Partly Cloudy 95 35 72 22 47 47 WSW 5 7 29.91 1013 10 16 N/A
4:55 pm 16:55 Mostly Cloudy 95 35 70 21 44 44 SW 5 7 29.91 1013 10 16 N/A
5:15 pm 17:15 Cloudy 93 34 70 21 47 47 WSW 5 7 29.91 1013 10 16 N/A
5:35 pm 17:35 Cloudy 93 34 70 21 47 47 WSW 3 6 29.91 1013 10 16 N/A
5:55 pm 17:55 Cloudy 90 32 72 22 55 55 W 7 11 29.91 1013 10 16 N/A
6:15 pm 18:15 Partly Cloudy 90 32 72 22 55 55 WSW 5 7 29.91 1013 10 16 N/A
6:35 pm 18:35 Sunny 90 32 72 22 55 55 N N/A 29.91 1013 10 16 N/A
6:55 pm 18:55 Mostly Cloudy 90 32 72 22 55 55 N N/A 29.91 1013 10 16 N/A
7:15 pm 19:15 Mostly Cloudy 90 32 73 23 59 59 N N/A 29.91 1013 10 16 N/A
7:35 pm 19:35 Partly Cloudy 88 31 73 23 62 62 N N/A 29.91 1013 10 16 N/A
7:55 pm 19:55 Clear 86 30 73 23 66 66 N N/A 29.94 1014 10 16 N/A
8:15 pm 20:15 Clear 86 30 73 23 66 66 N N/A 29.94 1014 10 16 N/A
8:35 pm 20:35 Clear 86 30 73 23 66 66 N N/A 29.94 1014 10 16 N/A
8:55 pm 20:55 Clear 86 30 73 23 66 66 N N/A 29.94 1014 10 16 N/A
9:15 pm 21:15 Clear 82 28 75 24 79 79 N N/A 29.97 1015 10 16 N/A
9:35 pm 21:35 Partly Cloudy 81 27 75 24 84 84 N N/A 29.97 1015 10 16 N/A
9:55 pm 21:55 Cloudy 81 27 77 25 89 89 N N/A 29.97 1015 10 16 N/A
10:15 pm 22:15 Cloudy 81 27 77 25 89 89 N N/A 30.00 1016 10 16 N/A
10:35 pm 22:35 Cloudy 81 27 77 25 89 89 NW 6 9 30.00 1016 10 16 N/A
10:55 pm 22:55 Cloudy 82 28 75 24 79 79 N N/A 30.00 1016 10 16 N/A
11:15 pm 23:15 Cloudy 82 28 73 23 74 74 N 8 13 30.00 1016 10 16 N/A
11:35 pm 23:35 Mostly Cloudy 82 28 73 23 74 74 N 5 7 30.00 1016 10 16 N/A
11:55 pm 23:55 Mostly Cloudy 81 27 73 23 79 79 NNE 7 11 30.00 1016 10 16 N/A

Powered by AerisWeather